EW0915 Weather Reports


Display with metric or nautical units.
time (UTC)temp
F
wind
direction
speed
MPH
gust
MPH
rain 1hr
in
rain 24hr
in
rain mn
in
humidity
%
barometer
mb
20260506061018 42 0.0 1.0 0.00 0.00 0.00 76 1022.1
20260506051037 41 0.0 1.0 0.00 0.00 0.00 76 1022.2
20260506045016 41 0.0 1.0 0.00 0.00 0.00 75 1022.1
20260506044016 41 0.0 1.0 0.00 0.00 0.00 75 1022.1
20260506043016 41 0.0 1.0 0.00 0.00 0.00 75 1022.0
20260506042036 41 0.0 1.0 0.00 0.00 0.00 74 1022.0
20260506041016 42 0.0 1.0 0.00 0.00 0.00 74 1022.1
20260506040037 42 0.0 1.0 0.00 0.00 0.00 75 1022.1
20260506035016 42 0.0 1.0 0.00 0.00 0.00 74 1022.1
20260506034059 42 0.0 0.0 0.00 0.00 0.00 74 1022.2
20260506033016 42 0.0 1.0 0.00 0.00 0.00 73 1022.2
20260506032016 42 0.0 1.0 0.00 0.00 0.00 73 1022.3
20260506031038 42 0.0 1.0 0.00 0.00 0.00 73 1022.3
20260506030037 43 0.0 1.0 0.00 0.00 0.00 72 1022.4
20260506025017 43 0.0 1.0 0.00 0.00 0.00 72 1022.5
20260506024057 43 0.0 1.0 0.00 0.00 0.00 71 1022.5
20260506023017 43 0.0 1.0 0.00 0.00 0.00 72 1022.5
20260506022016 43 0.0 1.0 0.00 0.00 0.00 72 1022.5
20260506021016 44 0.0 0.0 0.00 0.00 0.00 71 1022.6
20260506020016 44 0.0 1.0 0.00 0.00 0.00 71 1022.5
20260506015037 44 0.0 1.0 0.00 0.00 0.00 71 1022.6
20260506014016 44 0.0 1.0 0.00 0.00 0.00 71 1022.8
20260506013016 44 0.0 1.0 0.00 0.00 0.00 71 1022.7
20260506012015 44 0.0 3.0 0.00 0.00 0.00 70 1022.9
20260506011036 44 0.0 0.0 0.00 0.00 0.00 70 1022.8
20260506010017 44 0.0 3.0 0.00 0.00 0.00 70 1022.9
20260506005015 44 0.0 2.0 0.00 0.00 0.00 70 1022.9
20260506004017 44 0.0 2.0 0.00 0.00 0.00 70 1022.8
20260506003036 44 0.0 2.0 0.00 0.00 0.00 70 1023.0
20260506002015 44 0.0 2.0 0.00 0.00 0.00 70 1022.9
20260506001015 44 0.0 2.0 0.00 0.00 0.00 70 1022.7
20260506000015 45 0.0 3.0 0.00 0.00 0.00 70 1022.8
20260505235036 45 0.0 2.0 0.00 0.00 0.00 69 1022.8
20260505234017 45 0.0 2.0 0.00 0.00 0.00 69 1022.8
20260505233015 45 0.0 1.0 0.00 0.00 0.00 69 1022.9
20260505232016 45 0.0 2.0 0.00 0.00 0.00 68 1022.9
20260505231017 45 0 1.0 4.0 0.00 0.00 0.00 68 1023.0
20260505230016 45 0.0 1.0 0.00 0.00 0.00 68 1023.0
20260505225017 45 0.0 4.0 0.00 0.00 0.00 68 1023.0
20260505224016 45 0.0 5.0 0.00 0.00 0.00 68 1023.1
20260505223016 45 23 1.0 4.0 0.00 0.00 0.00 68 1023.1
20260505222015 45 0 1.0 6.0 0.00 0.00 0.00 67 1023.1
20260505221015 45 23 1.0 5.0 0.00 0.00 0.00 67 1023.1
20260505220015 45 338 1.0 4.0 0.00 0.00 0.00 67 1023.1
20260505215016 46 338 1.0 5.0 0.00 0.00 0.00 67 1023.0
20260505214017 46 0 1.0 7.0 0.00 0.00 0.00 67 1022.9
20260505213017 46 0.0 3.0 0.00 0.00 0.00 66 1023.0
20260505212015 46 0 1.0 7.0 0.00 0.00 0.00 66 1022.8
20260505211017 46 0 1.0 6.0 0.00 0.00 0.00 66 1022.8
20260505210019 46 0 2.0 8.0 0.00 0.00 0.00 65 1022.9
20260505205059 46 0 1.0 5.0 0.00 0.00 0.00 66 1022.8
20260505204019 46 0 1.0 6.0 0.00 0.00 0.00 65 1022.7
20260505203017 46 0 2.0 7.0 0.00 0.00 0.00 65 1022.7
20260505202015 46 0 2.0 7.0 0.00 0.00 0.00 65 1022.7
20260505201017 47 0 2.0 7.0 0.00 0.00 0.00 65 1022.7
20260505200019 47 0 4.0 12.0 0.00 0.00 0.00 65 1022.7
20260505195017 47 0 2.0 6.0 0.00 0.00 0.00 65 1022.7
20260505194017 47 0 3.0 11.0 0.00 0.00 0.00 66 1022.7
20260505193017 47 0 2.0 11.0 0.00 0.00 0.00 66 1022.6
20260505192017 48 0 2.0 8.0 0.00 0.00 0.00 66 1022.5
20260505191040 48 0 3.0 10.0 0.00 0.00 0.00 66 1022.3
20260505190017 48 0 2.0 8.0 0.00 0.00 0.00 66 1022.3
20260505185039 48 0 3.0 13.0 0.00 0.00 0.00 65 1022.2
20260505184018 49 0 2.0 6.0 0.00 0.00 0.00 64 1022.0
20260505183019 49 0 3.0 9.0 0.00 0.00 0.00 65 1022.0
20260505182017 49 23 3.0 10.0 0.00 0.00 0.00 64 1021.9
20260505181017 49 0 3.0 11.0 0.00 0.00 0.00 64 1021.9
20260505180019 49 23 3.0 11.0 0.00 0.00 0.00 65 1022.1
20260505175018 50 23 4.0 12.0 0.00 0.00 0.00 64 1021.9
20260505174019 50 0 4.0 16.0 0.00 0.00 0.00 64 1022.0
20260505173017 51 23 3.0 13.0 0.00 0.00 0.00 63 1022.1
20260505172017 51 0 4.0 10.0 0.00 0.00 0.00 62 1022.0
20260505171017 51 0 4.0 11.0 0.00 0.00 0.00 63 1022.0
20260505170037 51 0 3.0 10.0 0.00 0.00 0.00 65 1021.9
20260505165017 51 23 2.0 7.0 0.00 0.00 0.00 66 1021.9
20260505164017 52 0 2.0 7.0 0.00 0.00 0.00 65 1021.8
20260505163017 52 23 2.0 12.0 0.00 0.00 0.00 64 1021.9
20260505162017 52 0 2.0 9.0 0.00 0.00 0.00 63 1021.7
20260505161017 52 0 4.0 12.0 0.00 0.00 0.00 64 1021.8
20260505153017 53 0 3.0 11.0 0.00 0.00 0.00 62 1021.8
20260505152040 53 0 4.0 12.0 0.00 0.00 0.00 63 1021.7
20260505151018 53 0 3.0 9.0 0.00 0.00 0.00 61 1021.7
20260505125016 57 23 2.0 10.0 0.00 0.00 0.00 44 1020.7
20260505124038 57 113 1.0 4.0 0.00 0.00 0.00 47 1020.6
20260505123018 55 0 1.0 4.0 0.00 0.00 0.00 50 1020.6
20260505122016 54 0 1.0 4.0 0.00 0.00 0.00 51 1020.7
20260505121016 55 0 1.0 4.0 0.00 0.00 0.00 51 1020.8
20260505120016 54 23 2.0 7.0 0.00 0.00 0.00 50 1020.9
20260505115018 54 23 1.0 8.0 0.00 0.00 0.00 52 1020.9
20260505114017 54 23 2.0 8.0 0.00 0.00 0.00 52 1020.9
20260505113018 54 23 1.0 5.0 0.00 0.00 0.00 54 1021.0
20260505112016 54 23 1.0 5.0 0.00 0.00 0.00 55 1021.1
20260505111036 53 0 1.0 8.0 0.00 0.00 0.00 57 1021.0
20260505102016 53 23 1.0 7.0 0.00 0.00 0.00 57 1020.9
20260505101016 53 0 1.0 7.0 0.00 0.00 0.00 57 1021.0
20260505100018 53 0 1.0 7.0 0.00 0.00 0.00 59 1021.0
20260505095036 53 0.0 5.0 0.00 0.00 0.00 60 1020.8
20260505094016 52 0 1.0 4.0 0.00 0.00 0.00 60 1020.8
20260505093016 52 225 1.0 5.0 0.00 0.00 0.00 61 1020.7
20260505092016 52 225 1.0 4.0 0.00 0.00 0.00 61 1020.7
20260505091016 52 248 1.0 3.0 0.00 0.00 0.00 62 1020.7
20260505090016 52 225 1.0 6.0 0.00 0.00 0.00 64 1020.8
20260505085038 51 225 1.0 5.0 0.00 0.00 0.00 66 1020.9
20260505084016 51 248 1.0 5.0 0.00 0.00 0.00 66 1020.8
20260505083017 51 248 1.0 3.0 0.00 0.00 0.00 68 1020.8
20260505082017 50 248 1.0 5.0 0.00 0.00 0.00 70 1020.8
20260505081018 50 0.0 2.0 0.00 0.00 0.00 71 1020.8
20260505080016 50 248 1.0 5.0 0.00 0.00 0.00 72 1020.7
20260505075016 50 248 1.0 5.0 0.00 0.00 0.00 73 1020.7
20260505074018 49 248 1.0 4.0 0.00 0.00 0.00 75 1020.5
20260505073017 49 248 1.0 3.0 0.00 0.00 0.00 76 1020.4
20260505072016 49 0.0 2.0 0.00 0.00 0.00 77 1020.3
20260505071018 48 248 1.0 5.0 0.00 0.00 0.00 78 1020.4
20260505070016 48 248 1.0 5.0 0.00 0.00 0.00 77 1020.5
20260505065017 48 248 1.0 5.0 0.00 0.00 0.00 78 1020.5
20260505064016 48 248 1.0 4.0 0.00 0.00 0.00 79 1020.3
20260505063016 48 248 2.0 5.0 0.00 0.00 0.00 79 1020.2
20260505062018 47 248 1.0 5.0 0.00 0.00 0.00 80 1020.3